Flag for Slovakia Weather past 2 weeks in Piešťany, Slovakia

Now
61 °F

Fog.


Feels Like: 61 °F
Forecast: 60 / 78 °F
Wind: 3 mph from North

Location: Piestany

Current Time: Sep 2, 2014 at 2:18:02 AM

Latest Report: Sep 2, 2014 at 2:00 AM


Visibility: 2 mi

Pressure: 29.92 "Hg

Humidity: 94%

Dew point: 59 °F

Location of PiešťanyLocation

Historic Weather in Piešťany — Graph

°F

Piešťany temperature yesterday

Maximum temperature yesterday: 64 °F (at 12:00 PM)
Minimum temperature yesterday: 57 °F (at 12:30 AM)
Average temperature yesterday: 61 °F

Past Weeks' High & Low Weather Summary

 TemperatureHumidityPressure
High77 °F (Aug 18, 2:00 PM)100% (Aug 25, 8:00 AM)30.15 "Hg (Aug 25, 8:00 AM)
Low41 °F (Aug 28, 6:30 AM)35% (Aug 28, 6:00 PM)29.71 "Hg (Aug 27, 3:00 AM)
Average61 °F78%29.98 "Hg
* Reported Aug 18 1:00 AM — Sep 2 1:00 AM, Piešťany, Weather by CustomWeather, © 2014

Note: Actual official high and low records may vary slightly from our data, if they occured in-between our weather recording intervals... More about our weather records

Advertising

Piešťany weather history for previous 24 hours

 ConditionsComfort  
Time TempWeatherWind HumidityBarometerVisibility
1:00 AM
Sep 2
61 °FFog.3 mph94%29.92 "Hg2 mi
12:30 AM61 °FFog.3 mph94%29.92 "Hg2 mi
12:00 AM61 °FFog.7 mph94%29.92 "Hg2 mi
11:30 PM
Sep 1
61 °FFog.7 mph94%29.92 "Hg2 mi
11:00 PM61 °FLight rain. Overcast.6 mph94%29.92 "Hg2 mi
10:30 PM61 °FRain. Partly cloudy.7 mph94%29.92 "Hg2 mi
10:00 PM63 °FLight rain. Mostly cloudy.7 mph88%29.92 "Hg4 mi
9:30 PM63 °FMostly cloudy.8 mph88%29.92 "Hg4 mi
9:00 PM63 °FLight rain. Mostly cloudy.9 mph88%29.92 "Hg5 mi
8:30 PM63 °FMostly cloudy.10 mph88%29.92 "Hg6 mi
8:00 PM63 °FLight rain. Mostly cloudy.9 mph88%29.89 "Hg6 mi
7:30 PM63 °FLight rain. Mostly cloudy.9 mph88%29.89 "HgN/A
7:00 PM63 °FMostly cloudy.9 mph88%29.89 "HgN/A
6:30 PM63 °FMostly cloudy.10 mph88%29.89 "HgN/A
6:00 PM63 °FMostly cloudy.8 mph94%29.89 "HgN/A
5:30 PM63 °FMostly cloudy.10 mph94%29.89 "HgN/A
5:00 PM64 °FLight rain. Mostly cloudy.10 mph88%29.89 "Hg5 mi
4:30 PM64 °FLight rain. Cloudy.8 mph88%29.89 "Hg4 mi
4:00 PM64 °FLight rain. Cloudy.8 mph88%29.89 "Hg5 mi
3:30 PM64 °FLight rain. Cloudy.9 mph88%29.89 "Hg6 mi
3:00 PM64 °FLight rain. Cloudy.9 mph88%29.89 "HgN/A
2:30 PM64 °FLight rain. Cloudy.12 mph88%29.86 "HgN/A
2:00 PM64 °FLight rain. More clouds than sun.12 mph88%29.86 "HgN/A
1:30 PM64 °FMore clouds than sun.12 mph83%29.86 "HgN/A
1:00 PM64 °FLight rain. Mostly cloudy.12 mph83%29.86 "HgN/A
12:30 PM64 °FMostly cloudy.10 mph83%29.86 "HgN/A
12:00 PM64 °FMostly cloudy.9 mph78%29.86 "HgN/A
11:30 AM63 °FMostly cloudy.10 mph83%29.86 "HgN/A
11:00 AM63 °FMostly cloudy.10 mph83%29.86 "HgN/A
10:30 AM63 °FMostly cloudy.12 mph83%29.86 "HgN/A
10:00 AM61 °FLight rain. Mostly cloudy.10 mph88%29.86 "HgN/A
9:30 AM61 °FMore clouds than sun.10 mph83%29.83 "HgN/A
9:00 AM61 °FLight rain. More clouds than sun.10 mph83%29.83 "HgN/A
8:30 AM61 °FOvercast.13 mph83%29.83 "HgN/A
8:00 AM59 °FSunny.9 mph94%29.83 "Hg10 mi
7:30 AM59 °FSunny.7 mph88%29.83 "Hg10 mi
7:00 AM57 °FClear.8 mph94%29.83 "Hg10 mi
6:30 AM57 °FClear.8 mph94%29.83 "Hg10 mi
6:00 AM57 °FClear.9 mph94%29.83 "Hg10 mi
5:30 AM57 °FOvercast.7 mph94%29.83 "HgN/A
5:00 AM57 °FMostly cloudy.7 mph94%29.83 "HgN/A
4:30 AM57 °FMostly cloudy.6 mph94%29.83 "HgN/A
4:00 AM59 °FOvercast.5 mph94%29.83 "Hg4 mi
3:30 AM59 °FMostly cloudy.3 mph94%29.86 "Hg5 mi
3:00 AM59 °FOvercast.3 mph94%29.86 "Hg5 mi
2:30 AM59 °FOvercast.2 mph94%29.86 "Hg6 mi
2:00 AM59 °FMostly cloudy.2 mph94%29.86 "Hg6 mi
Weather by CustomWeather, © 2014

See weather overviewHow to use our weather pages